Погода в Диасёръя

Россия / Республика Коми     62°22′43″N   53°47′06″E
темп.,
°C
ветер,
м/с
пор.,
м/с
влажн.,
%
обл.,
%
осадки,
мм/ч
давл.,
гПа
погр.,
м
19 апреля, пн
пн1900:00−6ссв13845 0.0 103866
03:00−6ссв11875 0.0 103913
06:00−4сз01685 0.0 1039164
09:000ссз23495 0.0 10381079
12:00+3сз23435 0.0 10371344
15:00+3зсз34425 0.0 10351349
18:00+1зюз11734 0.0 103410
21:00−3з258222 0.0 103466
20 апреля, вт
вт2000:00−3з29815 0.0 1034150
03:00−3з3108115 0.0 1034208
06:000з3116842 0.0 1033306
09:00+5зсз475095 0.0 1032791
12:00+7зсз4646100 0.0 10311107
15:00+8зсз365484 0.0 10311079
18:00+4зсз22725 0.0 103020
21:00+1з11775 0.0 103110
21 апреля, ср
ср2100:000з11795 0.0 103110
03:00−1зюз11810 0.0 103110
06:00+3ююз12695 0.0 103199
09:00+7ююв23531 0.0 1031620
12:00+10ююв344573 0.0 10291114
15:00+11ююв4644100 0.0 10271261
18:00+8ююв3106086 0.0 1026342
21:00+6ююв41369100 0.0 1025519
22 апреля, чт
чт2200:00+5ююв41470100 0.0 1024579
03:00+4ююв41373100 0.0 1023606
06:00+4ю51280100 0.1 1022897
09:00+6ююв51367100 0.3 10211109
12:00+4ю51196100 0.8 1022917
15:00+3ю51196100 1.9 1022729
18:00+3ю41097100 0.5 1022753
21:00+3ю41097100 0.6 1022736
23 апреля, пт
пт2300:00+3ююз41097100 0.5 1021869
03:00+3ююз4994100 0.7 1022843
06:00+4ю41088100 0.1 1022873
09:00+6ююз41183100 0.1 10221004
12:00+8ююз4981100 0.1 10221103
15:00+8ююз4879100 0.1 10231076
18:00+7ююз31084100 0.1 1024472
21:00+5ю269388 0.1 1024170